Regional Weather Roundup
Issued by NWS

Home | Current Version | Previous Version | Graphics & Text | Print | Product List | Glossary On
Versions: 1 2 3 4 5 6 7 8 9 10 11 12 13 14 15 16 17 18 19 20 21 22 23 24 25 26 27 28 29 30 31 32 33 34 35 36 37 38 39 40 41 42 43 44 45 46 47 48 49 50
000
ASUS43 KFSD 190202
RWRSD

WEATHER ROUNDUP FOR SOUTH DAKOTA
NATIONAL WEATHER SERVICE SIOUX FALLS SD
800 PM CST THU JAN 18 2018

NOTE: "FAIR" INDICATES FEW OR NO CLOUDS BELOW 12,000 FEET WITH NO
SIGNIFICANT WEATHER AND/OR OBSTRUCTIONS TO VISIBILITY.


SDZ001>005-009-010-012>017-190300-
NORTHWEST AND NORTH CENTRAL SOUTH DAKOTA

CITY           SKY/WX    TMP DP  RH WIND       PRES   REMARKS
BUFFALO          N/A     41  28  60 W3        29.65F
FAITH            N/A     39  28  64 SW7       29.70F
MOBRIDGE       CLOUDY    33  26  75 SE8       29.67F WCI  26
$$

SDZ012>016-024>037-041>051-057-063-072>074-190300-
SOUTHWEST AND SOUTH CENTRAL SOUTH DAKOTA

CITY           SKY/WX    TMP DP  RH WIND       PRES   REMARKS
RAPID CTY ARPT CLOUDY    36  26  67 NW5       29.74S
PIERRE         CLOUDY    31  26  82 NE3       29.73F
CUSTER         CLOUDY    45  22  40 W14G24    29.83S
ELLSWORTH AFB  CLOUDY    42  27  55 W5        29.72F
PHILIP         CLOUDY    36  28  73 CALM      29.73F
PINE RIDGE     CLOUDY    37  30  75 SW8       29.80F
SPEARFISH        N/A     52  23  32 CALM      29.75S
WINNER         FAIR      45  31  58 SW9       29.76F
$$

SDZ004>011-016>023-039-040-190300-
NORTHEAST SOUTH DAKOTA

CITY           SKY/WX    TMP DP  RH WIND       PRES   REMARKS
ABERDEEN       MOCLDY    31  26  82 S8        29.71F WCI  23
WATERTOWN      CLOUDY    30  26  85 S5        29.73F WCI  25
BROOKINGS      CLOUDY    32  28  85 S6        29.77F WCI  26
SISSETON         N/A     37  25  61 S6        29.69F
$$

SDZ017-020-022-023-036>040-048>070-190300-
SOUTHEAST SOUTH DAKOTA

CITY           SKY/WX    TMP DP  RH WIND       PRES   REMARKS
SIOUX FALLS    CLOUDY    31  26  82 SW5       29.79F WCI  26
HURON          CLOUDY    31  28  89 S6        29.76F WCI  25
CHAMBERLAIN    CLOUDY    38  33  81 SW5       29.76F
MITCHELL       CLOUDY    35  29  78 S8        29.78F WCI  29
YANKTON        CLOUDY    36  28  73 S6        29.82F
$$

ABBREVIATIONS USED IN REMARKS
   TC - TEMPERATURE IN CELSIUS
  WCI - WIND CHILL INDEX
   HX - HEAT INDEX
  VSB - VISIBILITY





USA.gov is the U.S. government's official web portal to all federal, state and local government web resources and services.